Regional Weather Roundup
Issued by NWS

Home | Current Version | Previous Version | Graphics & Text | Print | Product List | Glossary Off
Versions: 1 2 3 4 5 6 7 8 9 10 11 12 13 14 15 16 17 18 19 20 21 22 23 24 25 26 27 28 29 30 31 32 33 34 35 36 37 38 39 40 41 42 43 44 45 46 47 48 49 50

000
ASUS43 KMPX 222210
RWRMN
WEATHER ROUNDUP FOR MINNESOTA
NATIONAL WEATHER SERVICE TWIN CITIES/CHANHASSEN MN
400 PM CST WED FEB 22 2017


NOTE: "FAIR" INDICATES FEW OR NO CLOUDS BELOW 12,000 FEET WITH NO
SIGNIFICANT WEATHER AND/OR OBSTRUCTIONS TO VISIBILITY. N/A MEANS
CURRENT SKY AND/OR WEATHER CONDITIONS ARE NOT AVAILABLE.

MNZ060>063-068>070-222300-
   Twin Cities Metro

CITY           SKY/WX    TMP DP  RH WIND       PRES   REMARKS
TWIN CITIES    MOSUNNY   57  42  57 CALM      29.53F
ST PAUL        MOSUNNY   56  44  64 SE6       29.53F
CRYSTAL        MOSUNNY   53  43  68 NW13      29.54R
BLAINE         PTSUNNY   55  46  71 NW5       29.53F
LAKEVILLE      SUNNY     59  46  63 CALM      29.53S
EDEN PRAIRIE   SUNNY     56  44  64 SW8       29.54R
SOUTH ST PAUL  MOSUNNY   57  42  58 CALM      29.52F
LAKE ELMO      FAIR      55  45  67 CALM      29.54S
$$
MNZ001>005-007-008-013>017-022>024-027-028-222300-
   Northwest Minnesota

CITY           SKY/WX    TMP DP  RH WIND       PRES   REMARKS
BEMIDJI        LGT SNOW  32  32  99 N14       29.70R WCI  22
HALLOCK        CLOUDY    36  28  75 N12       29.83R
ROSEAU         PTSUNNY   34  27  75 N13       29.79R WCI  25
WARROAD        CLOUDY    34  27  75 N9        29.78S WCI  26
THIEF RVR FALL CLOUDY    33  26  75 N16       29.79R WCI  23
CROOKSTON      CLOUDY    34  28  80 N14       29.81R WCI  24
FOSSTON        CLOUDY    30  30 100 N17       29.75R WCI  18
DETROIT LAKES  LGT SNOW  34  32  93 N12G20    29.71R WCI  25
MOORHEAD       RAIN      34  32  93 N20G25    29.77R WCI  22
PARK RAPIDS    LGT SNOW  34  30  85 N14       29.66R VSB 1   WCI  25
MAHNOMEN       LGT SNOW  32  32  99 N18       29.73R WCI  20
$$
MNZ006-009>011-018-025>026-222300-
   North Central Minnesota

CITY           SKY/WX    TMP DP  RH WIND       PRES   REMARKS
BAUDETTE       CLOUDY    32  25  75 N15       29.75R WCI  22
FLAG ISLAND    PTSUNNY   34  21  60 N18       29.77R WCI  23
INTL FALLS     CLOUDY    33  28  81 N9        29.71R WCI  25
WASKISH        CLOUDY    34  30  86 N13G18    29.73R WCI  25
BIG FORK       FLURRIES  36  30  80 N7        29.67R
LONGVILLE      SNOW      34  32  93 NW7       29.66R VSB 1/2 WCI  28
GRAND RAPIDS   LGT RAIN  35  33  92 N12       29.64R WCI  27
CRANE LAKE     CLOUDY    36  30  80 N6        29.69S
ORR            FLURRIES  36  28  75 CALM      29.64S
COOK           LGT RAIN  36  32  87 N5        29.65S
WALKER         LGT SNOW  32  32  99 N7        29.67S VSB 1   WCI  26
$$
MNZ012-019>021-037-222300-
   Northeast Minnesota

CITY           SKY/WX    TMP DP  RH WIND       PRES   REMARKS
DULUTH         CLOUDY    41  34  76 E8        29.56F
ELY            LGT RAIN  37  30  75 N8        29.62F
HIBBING        LGT RAIN  35  34  96 N10       29.61R WCI  27
EVELETH        LGT RAIN  40  33  78 N8        29.62R
DULUTH HARBOR  PTSUNNY   37  36  93 CALM      29.60F
TWO HARBORS    CLOUDY    43  34  70 E7        29.57S
SILVER BAY     MOSUNNY   39  34  81 E7        29.59F
GRAND MARAIS     N/A     39  32  76 NE3       29.64S
G MARAIS ARPRT MOSUNNY   39  28  65 NW7       29.61R
$$
MNZ029>031-032-039>041-046>048-054>057-064-222300-
   West Central Minnesota

CITY           SKY/WX    TMP DP  RH WIND       PRES   REMARKS
FERGUS FALLS   MIX PCPN  36  36 100 N13       29.73R
WHEATON        LGT RAIN  36  34  93 NW16G24   29.74R
MORRIS         CLOUDY    39  37  93 NW16      29.67R
ALEXANDRIA     CLOUDY    40  36  86 N12       29.64R
ELBOW LAKE     LGT RAIN  37  36  97 NW14      29.68R
WADENA         CLOUDY    36  34  93 N13G20    29.65R
GLENWOOD       PTSUNNY   43  39  87 N12       29.63R
APPLETON       CLOUDY    41  36  81 NW15G22   29.67R
BENSON         CLOUDY    46  36  66 N15       29.66R
ORTONVILLE     CLOUDY    39  36  87 NW14G21   29.70R
MADISON        CLOUDY    46  39  76 NW18      29.68R
WILLMAR        CLOUDY    48  45  87 NW15G25   29.63R
$$
MNZ033>034-036-042>043-049>051-058-059-222300-
   Central Minnesota

CITY           SKY/WX    TMP DP  RH WIND       PRES   REMARKS
ST CLOUD       MOSUNNY   54  41  61 N3        29.56S
SAUK CENTRE    CLOUDY    44  38  80 N16       29.61R
PAYNESVILLE    CLOUDY    50  42  73 NW13      29.59R
AITKIN         MIX PCPN  43  37  81 NW8       29.60R
PINE RIVER     LGT SNOW  34  34 100 NW7       29.70R WCI  28
BRAINERD       CLOUDY    38  37  97 NW13      29.64R
STAPLES        DRIZZLE   36  36 100 N14       29.64S
LONG PRAIRIE   CLOUDY    39  36  87 NW10G20   29.61S
LITTLE FALLS   PTSUNNY   46  36  66 N8        29.61R
LITCHFIELD     PTSUNNY   55  45  67 W8        29.58S
BUFFALO        MOSUNNY   51  45  78 W7        29.58F
MAPLE LAKE     SUNNY     54  45  71 W7        29.58S
HUTCHINSON     CLOUDY    53  48  83 W10       29.59R
$$
MNZ037-044-045-052-053-222300-
   East Central Minnesota

CITY           SKY/WX    TMP DP  RH WIND       PRES   REMARKS
PRINCETON      MOSUNNY   55  43  62 NW5       29.57R
MORA           CLOUDY    50  39  66 NE6       29.58R
CAMBRIDGE      PTSUNNY   54  43  66 N3        29.55R
RUSH CITY      CLOUDY    52  43  71 CALM      29.55S
MOOSE LAKE     PTSUNNY   43  32  65 NE7       29.55S
HINCKLEY       FAIR      50  37  62 NE8       29.55S
CLOQUET        PTSUNNY   41  32  70 CALM      29.59R
MCGREGOR       CLOUDY    39  37  93 NW6       29.61R
$$
MNZ071>073-080-081-089-090-097-098-222300-
   Southwest Minnesota

CITY           SKY/WX    TMP DP  RH WIND       PRES   REMARKS
MONTEVIDEO     MOSUNNY   46  39  76 N14       29.66R
GRANITE FALLS  PTSUNNY   46  41  81 NW17G25   29.66R
CANBY          MOSUNNY   46  39  76 W15G21    29.69R
MARSHALL       CLOUDY    44  40  85 N21       29.65R
REDWOOD FALLS  SUNNY     54  43  66 NW14G22   29.59R
OLIVIA         PTSUNNY   50  43  76 NW18G24   29.60S
PIPESTONE      MOSUNNY   54  41  62 NW15      29.65R
WINDOM         SUNNY     61  43  51 W21G30    29.59R
WORTHINGTON    SUNNY     57  44  62 W22       29.62R
JACKSON          N/A     61  41  48 W20G26    29.60R
TRACY          MOSUNNY   49  44  83 NW21      29.64R
SLAYTON        MOSUNNY   55  46  69 NW15      29.63R
$$
MNZ065>067-074>077-082>085-091>093-222300-
   South Central Minnesota

CITY           SKY/WX    TMP DP  RH WIND       PRES   REMARKS
MANKATO          N/A     62  45  53 W16       29.56R
NEW ULM        SUNNY     57  46  67 NW17      29.57R
ST JAMES       MOSUNNY   63  45  51 W17G25    29.58R
FAIRMONT       SUNNY     63  43  48 W17       29.58R
GLENCOE        CLOUDY    53  50  89 NW12      29.57R
FARIBAULT      SUNNY     61  46  59 S6        29.55S
OWATONNA       SUNNY     59  43  55 CALM      29.55F
WASECA         SUNNY     59  45  58 SW6       29.57S
ALBERT LEA     SUNNY     61  45  55 W3        29.56F
$$
MNZ078>079-086>088-094>096-222300-
   Southeast Minnesota

CITY           SKY/WX    TMP DP  RH WIND       PRES   REMARKS
ROCHESTER      SUNNY     55  48  77 SW10      29.57R
RED WING       SUNNY     59  37  44 S5        29.54S
STANTON        SUNNY     60  45  56 S5        29.52F
DODGE CENTER   SUNNY     57  46  67 W9        29.57R
WINONA         MOSUNNY   57  39  51 W3        29.56R
AUSTIN         SUNNY     57  46  67 W10       29.57R
PRESTON        SUNNY     56  43  61 NW10      29.56S
$$
ABBREVIATIONS USED IN REMARKS
   TC - TEMPERATURES IN CELSIUS
  WCI - WIND CHILL INDEX
   HX - HEAT INDEX
  VSB - VISIBILITY
$$



USA.gov is the U.S. government's official web portal to all federal, state and local government web resources and services.